#timestamp,LO_Frequency,Hit,StdDev 
1504706415.6,286047001.7,P,0.3
1504706435.5,286047001.3,P,0.3
1504706455.3,286046999.7,N,0.8
1504706475.1,286047001.6,N,0.7
1504706495.9,286047002.6,Y,0.0
1504706515.7,286046998.4,P,1.3
1504706535.6,286047001.1,N,1.3
1504706555.4,286047000.3,N,1.1
1504706575.2,286047001.2,N,1.1
1504706595.1,286047000.9,N,1.0
1504706596.0,286047000.9,N,0.9
1504706615.8,286047000.5,N,0.9
1504706635.7,286047000.6,N,0.8
1504706655.5,286047000.7,N,0.8
1504706675.3,286047000.8,N,0.7
1504706695.2,286047001.1,N,0.7
1504706715.0,286047001.0,N,0.7
1504706715.9,286047001.0,N,0.7
1504706735.7,286047000.4,N,0.7
1504706755.6,286047000.0,N,0.7
1504706775.4,286047002.7,Y,0.0
1504706795.3,286047000.9,P,0.1
1504706815.1,286046998.1,P,1.3
1504706835.8,286046998.4,N,1.3
1504706855.7,286047000.7,N,1.2
1504706875.5,286046998.4,N,1.2
1504706895.4,286047000.8,N,1.2
1504706915.2,286046998.5,N,1.2
1504706935.0,286047000.9,N,1.2
1504706935.9,286047000.9,N,1.2
1504706955.8,286047001.0,N,1.2
1504706975.6,286047000.0,N,1.2
1504706995.5,286047000.4,N,1.1
1504707015.3,286047000.7,N,1.1
1504707035.1,286047000.0,N,1.1
1504707055.9,286047002.7,N,1.2
1504707075.7,286046998.2,N,1.3
1504707095.6,286047000.6,N,1.2
1504707115.4,286047000.8,N,1.2
1504707135.2,286047002.7,N,1.3
1504707155.1,286047000.4,N,1.3
1504707156.0,286047000.4,N,1.2
1504707175.8,286047000.1,N,1.2
1504707195.6,286047000.1,N,1.2
1504707215.5,286046999.8,N,1.2
1504707235.3,286047002.4,N,1.2
1504707255.2,286046999.8,N,1.2
1504707275.9,286046999.9,N,1.2
1504707295.7,286047002.8,N,1.2
1504707315.6,286047000.2,N,1.2
1504707335.4,286047000.3,N,1.2
1504707355.2,286047001.0,N,1.2
1504707375.1,286047000.9,N,1.2
1504707376.0,286047000.9,N,1.1
1504707395.8,286047000.6,N,1.1
1504707415.7,286047001.0,N,1.0
1504707435.5,286047000.9,N,1.0
1504707455.3,286047000.3,N,0.9
1504707475.2,286046999.8,N,1.0
1504707495.0,286047002.0,N,1.0
1504707495.9,286047002.0,N,1.0
1504707515.8,286047002.1,N,1.0
1504707535.6,286047001.8,N,1.0
1504707555.5,286047001.8,N,1.1
1504707575.3,286047002.8,N,1.1
1504707595.1,286047000.2,N,1.1
1504707615.9,286047002.5,N,1.0
1504707635.7,286047002.1,N,1.0
1504707655.5,286047000.5,N,1.0
1504707675.4,286047000.5,N,1.0
1504707695.2,286047000.0,N,1.0
1504707715.1,286047000.2,N,1.0
1504707716.0,286047000.2,N,1.0
1504707735.8,286047002.4,N,1.0
1504707755.6,286047000.0,N,1.0
1504707775.5,286047000.1,N,1.0
1504707795.3,286046999.7,N,1.0
1504707815.2,286047000.3,N,0.9
1504707835.9,286047000.4,N,0.9
1504707855.7,286046998.1,N,1.0
1504707875.6,286047000.6,N,1.0
1504707895.4,286047000.0,N,1.0
1504707915.2,286047002.4,N,1.1
1504707935.1,286047001.6,N,1.1
1504707936.0,286047001.6,N,1.1
1504707955.8,286047002.1,N,1.1
1504707975.7,286047002.2,N,1.1
1504707995.5,286047001.6,N,1.1
1504708015.3,286047001.4,N,1.1
1504708035.2,286047001.4,N,1.1
1504708055.0,286047001.4,N,1.1
1504708055.9,286047001.4,N,1.1
1504708075.8,286047003.8,Y,0.0
1504708095.6,286047002.7,P,0.8
1504708115.4,286047002.4,N,0.7
1504708135.3,286047000.9,N,0.8
1504708155.1,286047000.9,N,0.8
1504708175.9,286047001.0,N,0.8
1504708195.7,286046998.2,N,1.3
1504708215.5,286046998.3,N,1.5
1504708235.4,286047001.2,N,1.5
1504708255.2,286047001.1,N,1.4
1504708275.1,286047001.2,N,1.3
1504708276.0,286047001.2,N,1.3
1504708295.8,286047000.6,N,1.2
1504708315.6,286047000.0,N,1.2
1504708335.5,286046999.7,N,1.2
1504708355.3,286047000.3,N,1.2
1504708375.1,286047000.5,N,1.1
1504708395.9,286046998.1,N,1.2
1504708415.7,286047001.1,N,1.2
1504708435.6,286047001.1,N,1.2
1504708455.4,286046998.5,N,1.2
1504708475.2,286047001.0,N,1.2
1504708495.1,286047000.7,N,1.2
1504708496.0,286047000.7,N,1.2
1504708515.8,286047002.8,N,1.2
1504708535.7,286046999.9,N,1.2
1504708555.5,286047002.8,N,1.3
1504708575.3,286047002.7,N,1.3
1504708595.2,286047002.1,N,1.3
1504708615.0,286047002.4,N,1.3
1504708615.9,286047002.4,N,1.3
1504708635.8,286047001.7,N,1.3
1504708655.6,286047001.7,N,1.3
1504708675.4,286047003.5,N,1.4
1504708695.3,286047003.6,N,1.5
1504708715.1,286047004.0,N,1.6
1504708735.8,286047001.5,N,1.5
1504708755.7,286047004.3,N,1.5
1504708775.5,286047004.2,N,1.5
1504708795.4,286047001.5,N,1.5
1504708815.2,286047001.5,N,1.5
1504708835.0,286047002.3,N,1.5
1504708835.9,286047002.3,N,1.5
1504708855.8,286047002.7,N,1.5
1504708875.6,286047002.6,N,1.5
1504708895.5,286047001.6,N,1.4
1504708915.3,286047001.8,N,1.4
1504708935.1,286047001.4,N,1.2
1504708955.9,286047004.4,Y,0.0
1504708975.7,286046998.7,P,1.7
1504708995.6,286046999.5,N,1.4
1504709015.4,286046998.7,N,1.4
1504709035.2,286046996.7,N,1.7
1504709055.1,286046997.0,N,1.8
1504709056.0,286046997.0,N,1.7
1504709075.8,286046996.5,N,1.8
1504709095.6,286046996.9,N,1.7
1504709115.5,286046999.5,N,1.7
1504709135.3,286046996.6,N,1.7
1504709155.2,286046996.6,N,1.6
1504709175.9,286046997.7,N,1.6
1504709195.7,286046995.1,Y,0.0
1504709215.6,286046999.5,P,0.8
1504709235.4,286046996.7,P,1.1
1504709255.3,286046999.4,N,1.2
1504709275.1,286046997.0,N,1.2
1504709276.0,286046997.0,N,1.1
1504709295.8,286046996.5,Y,0.0
1504709315.7,286047001.2,P,1.6
1504709335.5,286046999.3,N,1.3
1504709355.4,286046998.7,N,1.2
1504709375.2,286046999.3,N,1.1
1504709395.0,286046999.4,N,1.0
1504709395.9,286046999.4,N,0.9
1504709415.8,286046996.6,Y,0.0
1504709435.6,286046996.8,P,1.3
1504709455.4,286046999.5,N,1.2
1504709475.3,286046996.5,N,1.4
1504709495.1,286046997.5,N,1.3
1504709515.9,286046997.6,N,1.2
1504709535.7,286046995.5,Y,0.0
1504709585.6,212226509.7,E,nan
1504709625.5,9999966.7,E,nan
1504709665.5,286046985.0,E,nan
1504709675.4,286046990.9,N,0.0
1504709695.2,286046999.6,P,4.4
1504709715.1,286047001.1,N,4.5
1504709716.0,286047001.1,N,4.2
1504709735.8,286046999.4,N,3.8
1504709755.7,286046999.3,N,3.5
1504709775.5,286046996.9,N,3.3
1504709795.3,286046996.7,N,3.1
1504709815.2,286046997.1,N,3.0
1504709835.0,286046997.2,N,2.8
1504709835.9,286046997.2,N,2.7
1504709855.7,286046997.0,N,2.6
1504709875.6,286046997.6,N,2.5
1504709895.4,286046997.1,N,2.4
1504709915.3,286046995.5,N,2.4
1504709935.1,286046995.7,N,2.4
1504709955.8,286046995.5,N,2.3
1504709975.7,286046995.3,N,2.3
1504709995.5,286046997.4,N,2.3
